Theta_e
322 323 325 328 329 328 327 325 324 322 321 319 317 314 313 313 313 313 313 311 310 310 310 307 305 305 305 306 308 309 309 310 312 312 312 313 313 313 314 313 313 313 313 313 314 314 312 310 314 320 322 321 319 319 318 318 318 316 315 315 315 314 315 316 316 316 316 317 317 317 316 316 316 316
322 324 327 329 328 327 326 324 323 321 320 318 316 313 313 314 312 312 311 309 309 310 309 306 305 305 305 307 308 309 309 310 311 312 312 312 313 313 314 313 313 313 313 313 313 314 313 312 312 316 320 321 321 321 320 318 317 317 317 316 316 316 315 316 317 316 317 318 317 317 317 316 316 316
323 324 327 328 328 327 326 324 322 320 319 317 315 313 313 312 310 310 309 309 309 309 307 306 306 305 305 306 307 309 309 309 311 312 311 311 312 312 313 313 313 313 313 314 314 313 313 312 311 313 316 320 321 322 321 319 318 318 317 317 317 316 316 316 317 317 318 318 318 317 317 316 316 316
326 325 325 326 327 327 325 323 322 319 318 316 314 312 311 309 309 309 309 309 310 308 307 306 305 304 304 305 307 309 309 309 310 311 311 311 311 312 312 312 312 313 313 314 313 313 313 315 313 311 313 317 319 321 322 320 319 318 318 317 317 316 317 317 318 318 318 318 318 317 317 317 317 316
325 325 325 325 326 326 324 323 321 319 317 315 312 311 309 308 308 309 308 309 309 307 306 305 304 303 304 306 308 309 308 309 311 311 310 310 311 312 312 312 312 312 313 314 313 314 317 319 317 314 314 317 319 321 322 320 319 319 319 318 317 318 319 319 319 319 319 319 318 318 317 317 317 315
323 324 325 325 325 324 322 321 320 318 317 314 311 310 308 307 308 308 308 308 306 305 304 303 303 303 304 306 308 307 308 310 311 311 310 310 311 312 312 312 312 312 313 314 313 315 319 320 319 318 317 319 320 321 321 320 319 320 319 318 319 319 319 319 319 320 319 318 318 317 317 316 315 314
322 323 324 323 322 321 321 320 318 317 315 312 310 309 308 307 308 308 307 306 304 303 303 302 302 302 304 306 306 307 309 311 311 310 310 311 311 312 312 312 312 312 313 313 314 316 319 320 320 320 319 320 321 321 321 320 320 319 318 319 319 319 319 320 320 318 317 317 316 315 315 314 314 314
322 322 323 322 321 320 319 319 317 315 313 311 309 309 308 308 308 307 307 305 303 302 302 302 302 303 304 305 306 308 310 310 310 310 311 311 312 312 312 312 312 312 313 314 314 315 317 319 319 319 318 319 320 320 319 319 319 320 319 319 319 318 319 319 318 317 316 316 315 315 314 314 315 315
321 321 321 320 319 319 318 317 316 314 312 311 309 309 308 308 307 307 306 305 303 302 302 302 302 303 304 304 307 310 311 310 310 311 311 312 312 312 313 313 313 313 314 314 314 316 316 317 318 317 317 317 318 319 318 318 319 320 320 319 319 318 317 317 317 317 316 316 315 315 315 315 315 315
320 320 319 318 318 318 317 316 314 313 312 311 309 308 308 307 307 306 306 305 303 302 302 301 302 303 303 305 308 310 310 309 310 311 311 312 312 313 314 314 314 314 314 314 315 317 317 317 317 316 316 317 317 318 318 319 319 319 319 319 319 318 318 318 317 317 316 316 316 316 315 315 315 314
319 319 318 317 317 317 316 315 313 312 312 310 309 308 307 306 306 306 306 304 303 302 302 301 302 303 304 306 309 311 310 309 310 311 312 312 312 313 314 314 314 314 314 315 315 316 316 316 316 315 315 316 317 317 318 318 318 318 318 318 318 318 318 318 317 317 317 316 316 316 315 314 314 314
318 318 317 317 317 316 315 315 313 312 311 310 309 308 306 306 306 306 306 304 303 302 301 302 302 302 304 308 311 310 309 309 310 311 312 312 313 314 314 314 314 314 314 315 315 315 315 315 315 315 315 315 316 317 317 317 317 317 317 317 318 318 318 317 317 316 316 316 315 315 314 314 314 314
316 316 317 316 316 316 315 314 313 312 311 310 309 307 306 306 306 306 305 304 302 302 301 302 302 302 305 310 311 310 309 309 310 311 312 312 313 314 314 314 314 315 315 315 315 315 315 315 315 315 315 315 315 316 316 317 317 317 317 317 317 317 317 316 316 316 315 315 314 314 314 314 313 313
315 316 316 315 314 315 314 314 313 312 311 311 309 306 305 306 306 306 305 303 302 301 301 301 301 304 308 311 311 309 309 309 311 311 312 312 313 313 314 313 314 315 315 315 315 314 315 315 315 316 316 315 315 316 316 316 316 316 316 316 316 316 315 315 315 315 315 314 314 314 314 313 312 311
313 313 314 313 314 314 314 313 313 312 312 311 309 307 306 306 305 305 304 303 301 301 301 300 301 306 311 312 310 309 309 310 311 311 312 312 313 314 314 313 313 314 314 314 314 313 314 314 315 315 315 315 315 316 316 315 315 315 315 315 315 315 315 315 315 315 315 314 314 313 312 312 311 310
310 311 312 312 313 313 313 313 313 312 312 311 309 307 306 306 306 305 303 302 301 301 301 300 304 310 312 311 310 309 309 311 312 312 312 312 312 314 314 313 313 313 313 313 313 312 313 314 314 314 314 314 315 315 315 314 314 314 314 315 315 314 315 315 315 315 314 313 313 312 311 310 310 309
309 309 310 311 312 312 313 313 313 313 312 311 309 308 307 307 307 305 303 301 301 301 300 301 307 312 312 310 309 308 309 311 312 312 312 312 313 314 314 314 313 313 313 313 313 312 312 313 313 313 314 314 314 314 314 313 314 314 315 315 315 315 315 315 314 314 313 312 312 311 310 309 309 308
308 308 309 310 310 311 312 312 313 313 312 311 310 309 309 308 307 305 303 301 301 300 300 303 310 313 312 310 309 308 310 311 312 312 313 313 313 314 315 314 313 313 312 313 312 312 312 313 313 312 313 313 313 314 314 314 314 314 315 315 315 315 315 314 314 313 312 311 311 310 309 309 308 305
307 307 308 308 309 310 310 311 312 312 312 311 310 310 309 308 307 305 302 301 301 300 300 306 312 312 311 310 308 308 309 310 311 313 313 313 314 314 314 314 313 312 313 313 312 312 312 312 312 312 313 313 313 314 314 314 314 315 315 314 314 314 314 313 313 312 311 310 309 309 309 307 304 301
307 307 307 308 309 309 309 310 310 311 311 311 311 310 309 308 307 304 301 301 301 299 302 308 312 311 311 309 307 307 308 309 311 313 313 313 313 314 314 314 313 313 313 313 313 312 312 312 313 313 313 313 314 314 314 314 314 314 314 314 314 313 313 312 312 311 310 309 309 307 305 302 300 299
306 306 307 308 308 309 309 309 309 310 311 311 311 310 309 308 307 304 301 301 300 299 303 309 311 311 311 309 308 307 307 307 310 313 314 313 313 314 314 313 313 313 313 313 313 313 312 312 312 312 313 313 314 314 314 314 314 313 313 313 313 312 312 311 310 310 309 308 305 303 300 299 299 299
306 306 307 307 308 308 308 308 308 309 310 311 310 310 309 308 308 304 301 301 300 300 305 310 311 311 311 310 308 308 308 307 308 311 313 314 314 314 314 313 313 313 313 313 313 313 312 312 312 312 313 313 314 314 314 313 313 313 313 312 312 311 311 310 310 308 306 303 300 299 299 299 299 299
305 306 306 307 307 308 308 308 308 308 309 309 309 309 308 308 308 304 301 301 299 301 307 311 311 311 311 310 309 309 309 308 308 310 313 314 314 314 314 314 314 313 313 313 313 313 313 313 313 313 313 313 313 313 313 313 313 312 312 312 311 310 309 309 307 305 302 300 299 299 299 299 299 299
305 305 306 306 307 307 308 308 308 308 308 309 308 308 308 308 307 304 302 300 299 302 309 312 312 312 311 309 309 309 309 309 309 310 312 313 314 314 314 314 314 314 314 314 314 314 313 313 313 313 313 313 313 313 313 312 312 311 311 310 309 308 307 305 303 301 300 299 299 299 299 298 298 297
305 305 305 305 306 306 307 307 308 308 308 308 308 308 308 308 307 305 302 300 299 303 309 312 312 312 311 309 309 309 309 310 310 311 312 313 313 314 313 314 314 314 314 314 314 314 314 313 313 313 313 313 312 312 312 312 311 310 309 307 306 305 303 301 300 299 298 298 298 299 298 298 297 296
304 304 305 305 305 305 306 307 307 308 308 308 308 308 308 308 308 306 303 300 299 304 310 312 311 311 310 309 309 309 309 309 310 310 311 312 312 313 313 314 314 314 314 314 314 314 313 313 313 313 313 313 312 312 311 310 309 308 306 305 304 302 300 299 298 298 297 298 298 299 298 297 296 296
304 304 305 305 305 305 306 307 307 307 308 308 308 308 309 309 308 306 304 301 300 305 311 312 311 311 310 309 309 309 309 309 309 310 311 311 311 312 313 313 313 314 313 313 314 313 313 313 313 312 312 312 311 311 310 309 308 307 305 303 301 299 298 297 297 297 297 297 298 298 298 296 295 295
304 305 305 305 305 305 305 306 307 307 307 308 308 308 308 309 308 306 304 301 301 306 311 311 312 311 310 310 310 309 310 310 310 310 311 310 310 311 313 314 314 314 313 313 313 313 313 313 312 312 311 310 309 309 309 308 307 305 303 301 299 298 297 297 297 296 296 297 297 297 296 295 294 293
304 305 305 305 305 305 305 306 306 307 307 308 308 308 308 308 307 306 304 301 302 308 311 311 312 312 311 310 310 310 310 311 311 311 311 310 310 311 312 313 313 313 313 313 313 312 312 312 312 311 310 309 309 308 308 307 305 303 301 299 298 297 296 296 296 296 296 296 296 295 294 294 293 293
304 305 305 305 305 305 305 305 306 306 307 307 308 308 308 308 307 306 303 300 303 309 311 310 311 312 311 310 309 310 310 311 311 311 311 310 310 311 312 312 313 313 313 313 312 311 311 311 310 309 309 309 309 309 308 306 303 301 299 297 296 296 295 295 295 296 296 296 295 294 293 293 292 293
304 305 305 305 305 305 305 305 306 306 307 307 307 308 307 307 306 303 300 300 305 310 311 310 311 311 311 309 309 309 310 311 311 311 310 310 310 311 311 312 312 312 313 312 311 310 310 310 309 308 309 309 309 308 307 304 301 298 297 296 295 294 294 294 294 295 295 295 294 293 293 293 292 293
304 305 306 306 305 305 306 306 306 306 306 307 307 307 307 306 304 301 301 304 308 310 310 310 310 310 310 309 308 309 310 311 311 311 310 310 310 311 311 312 312 312 312 312 311 310 310 309 308 308 308 308 308 308 306 303 299 297 295 295 294 293 293 293 293 294 294 294 293 294 294 294 294 294
304 305 306 306 306 306 306 306 306 306 306 306 306 306 305 304 302 303 305 307 308 308 309 309 309 309 309 308 308 309 310 310 311 311 310 310 310 311 311 311 312 312 312 311 310 310 309 308 307 307 307 307 307 307 304 301 298 296 294 294 293 292 292 292 292 293 294 294 294 294 295 295 294 294
303 304 305 306 306 306 306 306 306 306 305 304 303 303 303 304 304 306 307 308 308 309 309 309 309 310 310 309 308 308 309 310 311 311 311 310 310 311 311 311 311 311 311 311 310 309 309 308 307 307 307 306 306 305 302 299 297 295 294 294 293 292 292 292 292 292 293 293 294 294 295 295 295 294
302 303 304 305 306 306 306 306 306 305 303 302 302 304 305 306 307 308 309 309 310 310 310 310 310 310 310 310 308 308 308 310 311 311 311 311 311 311 311 311 311 311 311 310 310 309 309 308 308 307 306 306 305 303 301 299 297 295 295 294 293 293 293 293 293 293 293 294 294 294 295 295 295 295
300 302 303 304 305 305 306 306 305 304 302 301 303 307 308 308 309 309 310 310 311 311 311 311 311 310 310 310 309 308 308 309 311 311 311 311 311 311 311 311 311 311 311 310 309 309 309 308 308 307 306 305 304 303 301 299 297 296 295 295 294 293 293 293 293 293 294 294 294 295 295 295 295 295
299 301 302 303 303 304 305 304 304 304 303 303 306 308 309 309 310 310 310 310 311 311 311 311 310 310 310 310 309 308 308 309 310 311 311 311 311 311 311 311 311 310 310 309 309 309 309 308 307 307 306 305 304 303 301 298 297 296 295 295 294 294 294 294 294 294 294 294 294 295 295 295 295 294
298 299 301 302 302 303 303 303 303 305 306 307 308 309 310 310 310 310 310 311 311 311 311 310 310 310 310 309 308 308 307 309 310 311 311 311 311 311 311 311 311 310 309 309 308 308 308 308 307 307 306 306 305 303 301 298 296 295 295 295 295 294 294 294 294 294 294 295 295 295 294 294 294 294
297 298 300 301 301 302 301 301 301 305 308 308 308 309 310 310 310 311 311 311 311 311 310 310 309 310 310 309 309 308 308 309 310 311 311 311 312 311 312 312 311 310 309 308 307 307 307 307 307 307 307 306 305 303 300 297 295 295 295 295 294 294 295 294 294 294 294 295 295 294 294 293 293 293
297 298 299 300 300 300 299 299 300 303 306 307 308 309 310 310 311 311 311 311 311 311 310 310 310 310 310 310 309 309 308 308 309 311 311 312 312 312 312 312 311 310 309 308 307 307 307 307 307 307 306 305 304 303 300 296 295 294 294 294 294 294 295 294 294 294 294 295 295 294 294 293 293 293
296 297 299 300 300 300 300 300 301 303 305 306 307 309 310 310 310 310 311 311 311 311 311 311 310 310 310 310 310 309 309 309 309 310 311 312 312 312 312 312 311 310 309 308 308 308 308 308 307 306 305 304 303 303 300 297 295 294 294 294 294 295 294 294 294 294 294 294 294 294 293 293 293 292
295 296 297 299 300 301 301 301 302 303 304 306 306 308 309 309 308 309 309 310 311 311 311 311 310 310 310 310 310 310 310 310 310 311 311 312 312 312 312 312 311 311 310 309 309 309 308 307 306 305 304 304 303 303 301 298 295 294 294 294 295 294 294 294 294 294 294 293 293 293 293 292 292 292
294 295 296 297 299 301 301 302 302 303 303 304 305 307 308 308 308 308 309 310 310 311 311 311 311 310 310 310 310 310 311 311 311 311 311 311 312 312 312 311 311 310 310 309 309 309 307 306 305 304 304 304 303 303 302 300 296 294 293 294 294 294 294 294 293 293 293 293 293 292 292 292 292 292
293 294 295 296 298 299 300 301 302 303 303 304 304 305 306 307 307 308 309 309 310 310 311 311 311 310 310 310 310 310 311 311 311 311 311 311 312 312 311 311 311 310 309 309 309 308 306 305 304 304 303 303 303 303 302 299 296 293 293 293 294 294 294 294 293 293 293 293 292 292 292 292 292 291
292 294 295 295 296 297 298 299 301 302 303 303 303 303 304 305 306 307 308 309 309 310 310 311 311 311 311 310 310 310 310 310 311 311 311 311 311 311 311 310 310 310 309 309 308 307 305 304 304 303 303 303 302 301 300 298 295 293 292 293 293 293 294 294 294 293 293 293 292 292 292 291 291 291
Wind_Speed
48 46 44 44 45 46 46 44 42 40 38 37 36 34 33 31 29 28 29 31 30 27 23 20 18 19 19 18 19 19 19 18 17 18 19 19 19 18 18 17 16 15 14 13 14 16 17 19 20 20 27 33 30 26 22 22 27 28 27 28 27 26 26 25 24 23 22 22 22 21 20 22 22 22
45 44 43 44 44 45 44 43 41 40 38 37 36 34 33 32 33 32 32 32 30 25 23 20 19 19 19 19 20 20 19 18 18 19 19 20 20 20 19 18 17 16 13 13 14 15 15 16 19 21 25 32 34 32 25 23 27 28 27 28 26 26 26 26 26 25 23 24 24 22 22 22 22 22
45 44 44 45 45 44 43 43 42 41 40 39 37 37 36 36 36 36 34 33 30 25 23 21 19 20 21 21 21 21 21 21 21 21 20 20 21 21 21 19 18 15 13 13 14 15 15 15 19 22 24 26 31 34 30 25 27 27 27 27 25 25 26 27 28 28 26 26 25 23 22 21 20 21
46 47 48 49 50 49 47 46 45 44 43 41 40 40 39 38 38 37 35 35 33 27 24 22 21 23 23 23 22 22 23 24 24 22 20 19 20 20 19 18 16 14 12 12 15 17 16 15 18 22 24 24 26 33 33 28 27 28 26 25 23 24 27 29 29 28 27 28 25 21 21 20 20 21
50 50 51 52 53 52 51 49 48 47 45 43 41 41 40 38 38 38 36 36 34 29 26 25 24 24 24 23 23 23 25 26 26 23 20 19 19 18 17 15 13 12 12 12 15 17 13 10 14 19 22 23 24 30 32 28 27 28 26 24 23 24 25 26 26 27 29 29 23 20 21 22 22 23
50 51 51 52 52 51 51 50 49 48 46 43 42 43 42 40 39 38 36 35 33 30 27 26 26 25 24 24 24 25 26 27 25 22 19 19 19 17 15 14 12 11 12 12 14 15 10 8 10 15 18 20 22 26 28 25 26 27 25 23 25 24 24 24 26 28 27 24 20 19 21 22 23 24
49 50 51 51 51 51 51 51 50 48 45 43 43 44 42 40 38 37 35 35 33 29 26 26 25 24 23 23 24 25 26 24 22 20 18 18 18 16 13 12 11 10 12 13 13 14 13 10 11 14 14 17 20 23 26 24 24 27 26 25 25 24 24 26 26 23 18 16 17 19 20 21 24 25
49 51 52 52 51 51 51 51 49 47 44 43 44 44 42 40 38 37 36 35 32 29 27 25 24 23 23 23 24 25 24 21 18 17 17 17 16 14 11 10 10 10 11 12 13 16 15 11 13 17 16 17 19 21 24 24 24 28 28 25 23 20 19 21 19 17 16 17 19 20 21 24 25 26
49 51 53 52 51 51 52 51 49 47 45 43 44 45 43 41 39 37 36 34 32 31 29 26 24 23 23 24 24 24 22 19 17 16 17 16 14 12 10 10 10 10 11 12 13 16 18 14 14 18 19 19 19 19 22 23 22 23 23 21 20 17 16 16 16 17 19 21 21 22 24 25 26 26
50 52 52 52 52 52 52 51 49 47 46 45 46 46 44 41 39 38 37 34 33 32 30 26 24 23 23 24 24 23 21 19 17 16 16 15 13 11 10 10 10 10 12 13 12 15 20 18 16 18 19 20 20 19 21 22 21 20 19 20 20 18 17 17 18 19 20 22 23 24 25 25 26 26
52 52 52 52 52 53 53 52 50 48 47 47 47 47 45 41 40 39 37 35 34 33 30 27 24 24 24 25 24 22 19 18 17 16 16 15 13 11 11 11 11 11 13 15 15 15 18 18 17 18 19 19 20 20 20 21 21 21 21 21 21 21 21 21 21 22 22 23 24 24 25 25 25 24
52 53 53 53 52 53 53 52 51 49 48 48 48 47 44 41 40 39 37 36 35 33 30 27 24 24 25 25 23 21 19 18 17 16 16 15 13 13 13 11 11 11 14 16 17 17 17 18 18 18 19 20 20 20 19 20 21 22 22 23 23 22 21 22 22 23 23 23 23 23 24 24 22 21
51 51 51 51 52 52 52 52 50 49 47 47 47 46 43 41 41 39 37 36 36 34 31 27 25 26 26 25 23 21 19 18 17 17 16 15 15 15 14 13 13 13 14 16 17 17 17 18 18 19 19 20 20 20 19 18 18 19 20 21 21 20 21 21 21 21 21 21 22 22 22 22 21 20
50 50 51 51 51 51 50 49 48 47 46 46 45 43 41 40 40 39 38 37 36 34 31 27 26 27 27 24 22 20 18 17 18 18 17 16 16 16 14 15 16 16 16 16 16 16 17 18 18 19 20 20 20 20 19 16 15 15 16 17 18 19 20 19 18 18 19 20 20 21 21 20 19 19
49 49 50 50 50 50 49 47 46 45 45 45 44 42 39 37 37 37 36 35 34 33 30 27 26 28 26 22 20 19 18 19 19 18 18 17 17 17 16 17 18 18 19 18 16 16 17 18 19 19 19 20 20 19 17 15 14 14 15 16 17 17 17 16 16 17 18 19 19 20 19 18 18 18
49 49 49 49 50 49 48 47 45 45 44 44 42 40 37 35 35 34 33 32 31 30 28 27 27 26 23 21 20 20 20 20 19 18 18 18 18 17 16 18 19 19 19 19 18 18 18 19 19 19 18 18 18 18 17 16 16 16 17 16 16 15 15 15 15 17 18 18 19 19 18 18 19 21
46 48 49 49 50 50 48 47 46 45 44 43 42 40 37 35 35 34 33 31 29 28 27 27 26 24 21 20 20 20 20 20 19 19 18 18 18 17 17 19 19 19 19 19 19 18 18 18 18 18 17 17 17 17 17 17 17 16 15 14 13 13 14 14 15 17 18 18 18 18 18 19 21 24
42 44 47 49 50 49 49 48 47 46 45 44 43 41 39 37 36 35 34 32 31 29 28 27 26 22 19 19 18 18 20 19 18 17 17 17 17 16 17 19 20 20 19 18 17 17 17 17 17 17 16 16 16 16 15 14 13 12 11 11 12 12 13 14 16 17 18 18 18 18 20 22 24 25
41 41 43 46 48 49 49 49 48 48 48 47 46 44 41 39 38 36 35 34 32 31 29 27 25 21 19 19 19 19 20 18 16 16 16 16 17 17 18 19 20 20 19 18 17 18 18 17 17 17 16 15 14 12 11 10 10 10 10 11 12 12 14 15 16 17 17 17 18 20 23 24 24 22
39 40 41 42 45 47 48 47 47 48 49 49 48 46 43 41 39 38 36 34 32 30 29 27 25 22 21 22 21 21 21 20 19 19 20 20 19 19 19 18 19 19 19 18 18 19 19 18 17 16 15 13 12 11 10 10 10 10 10 11 12 13 14 15 15 16 17 19 21 23 23 22 19 15
35 38 39 40 42 44 45 44 44 46 48 49 49 48 45 42 41 40 37 35 33 31 30 28 25 23 23 24 24 23 23 22 22 23 24 24 23 21 20 19 19 18 18 18 17 18 18 17 16 15 13 12 11 11 10 11 11 10 11 11 12 13 14 15 16 18 20 22 22 21 19 16 14 11
33 35 37 37 39 41 42 41 41 43 46 47 48 48 46 44 44 42 39 36 35 33 31 29 27 26 25 25 25 26 26 25 24 24 24 24 24 22 21 19 18 18 18 18 16 16 17 16 15 14 13 12 12 11 11 11 11 11 11 12 12 13 15 17 19 21 22 21 18 16 14 13 11 10
31 33 34 35 36 38 40 40 40 42 44 45 47 47 46 46 46 42 39 37 37 36 33 31 30 28 27 26 26 27 27 26 25 25 25 25 25 23 21 20 19 18 18 17 16 16 15 14 13 13 13 12 12 12 12 12 12 12 12 13 14 16 17 19 20 20 19 17 15 13 12 11 10 9
31 31 32 33 32 33 36 38 39 40 42 43 45 45 46 47 44 40 38 38 37 36 34 32 32 30 28 28 27 27 27 27 26 26 27 27 26 24 22 21 19 17 14 14 14 15 14 13 13 14 13 12 12 12 12 12 11 12 13 14 16 17 17 18 19 17 16 14 13 12 11 9 8 6
31 31 31 32 30 30 33 35 37 38 39 41 43 44 44 43 40 38 38 38 37 35 34 34 33 31 29 29 29 28 27 27 27 28 27 27 26 25 23 21 19 17 13 12 12 13 13 13 14 14 14 13 11 10 10 10 11 12 14 15 16 17 17 16 16 15 13 13 12 11 10 8 7 5
32 31 30 30 29 28 30 33 35 36 37 38 41 41 40 38 38 38 39 38 37 37 36 35 34 32 31 31 30 29 28 27 27 26 25 25 26 26 24 21 18 16 14 12 12 13 12 12 12 12 13 13 13 12 11 11 12 13 14 15 16 17 16 15 13 12 12 12 12 11 9 8 7 7
31 30 29 28 27 26 27 30 33 35 36 38 39 38 37 37 38 39 39 39 38 38 37 36 35 34 33 33 32 30 28 27 26 26 25 25 25 25 24 21 18 16 15 14 14 13 12 12 12 12 12 12 13 12 12 11 12 13 14 14 15 16 15 14 13 11 11 12 12 10 9 8 7 7
30 29 27 26 25 25 26 28 30 32 34 36 37 36 36 37 39 39 40 39 39 38 38 38 37 35 34 34 32 30 29 28 27 27 26 25 24 24 23 21 19 18 17 17 16 16 14 14 15 14 13 13 12 11 10 10 12 13 14 15 15 15 14 14 13 12 11 11 11 10 9 8 8 8
28 27 26 25 25 25 26 27 28 30 33 35 35 35 36 38 39 40 41 40 39 39 40 39 38 36 35 33 31 29 29 30 29 28 27 25 24 24 23 21 20 20 19 19 19 18 17 17 17 16 15 14 11 10 10 11 12 13 14 14 14 13 13 14 13 11 10 10 10 10 9 8 8 8
28 27 26 24 24 25 25 25 26 28 31 33 34 35 36 38 40 40 41 41 41 41 40 40 38 36 34 32 30 30 31 31 30 29 28 26 25 25 24 23 23 22 21 22 21 19 18 19 19 17 15 13 11 10 11 12 12 13 13 13 12 12 12 12 11 10 10 10 10 10 9 9 9 8
28 27 26 24 24 24 23 22 23 26 28 32 35 37 38 39 39 40 40 40 40 40 39 38 37 35 34 33 32 33 33 32 31 30 28 27 26 26 25 25 25 24 23 23 22 20 19 21 21 17 14 12 11 11 12 13 12 11 11 11 11 11 10 10 9 9 9 9 9 10 9 8 7 5
26 24 25 25 24 23 22 22 24 26 29 33 36 38 38 37 37 37 38 37 36 36 36 37 36 36 35 34 34 34 34 32 31 30 29 27 28 27 26 26 27 26 25 24 22 21 22 24 20 15 13 12 12 12 12 12 11 10 9 9 10 10 9 9 9 7 6 7 7 7 6 5 4 5
25 22 25 28 27 25 25 26 27 29 32 34 36 37 37 36 36 37 37 34 33 33 34 36 36 36 36 35 34 34 34 33 32 31 29 28 28 28 27 27 27 26 26 24 23 24 25 24 20 15 12 12 12 13 12 11 9 9 8 9 9 8 7 7 7 4 3 4 4 4 5 5 5 7
27 24 25 29 30 28 28 28 29 30 32 33 34 34 35 36 36 36 35 32 31 31 32 33 33 33 35 36 36 37 36 34 33 32 30 28 28 28 27 26 25 25 24 23 24 27 27 25 20 15 12 11 12 12 10 8 7 7 7 8 8 7 7 7 5 3 3 4 4 5 5 5 6 9
28 28 27 29 30 30 29 28 27 28 29 31 32 33 35 37 37 36 35 33 32 32 32 31 30 30 32 35 38 39 37 35 34 34 32 30 29 29 27 25 24 24 24 24 26 29 29 26 21 15 12 10 11 11 9 8 7 8 7 7 7 7 7 7 5 5 5 6 7 7 8 8 9 10
27 32 32 31 31 30 29 27 25 26 28 30 34 37 38 38 39 38 37 34 33 33 33 31 31 30 31 34 37 39 38 37 36 36 35 33 32 31 28 24 22 23 24 26 28 29 28 24 19 14 11 9 10 10 10 9 9 9 9 8 7 7 8 8 7 7 8 8 8 10 11 12 12 12
24 30 34 34 33 32 30 27 26 26 29 33 37 39 39 39 39 38 37 35 34 33 32 32 32 31 31 32 35 38 38 38 38 38 38 36 35 34 30 26 23 24 25 27 29 29 27 23 19 15 11 9 9 11 11 11 11 12 11 10 9 9 10 10 9 9 9 9 10 12 13 14 14 14
22 27 31 32 32 32 30 28 28 31 32 34 38 40 39 39 38 37 37 39 37 35 33 32 32 32 32 32 34 37 39 38 38 39 39 38 38 36 32 27 25 25 26 29 30 29 26 23 19 15 10 8 9 11 12 11 12 14 13 12 11 11 12 11 10 10 10 11 12 13 14 15 15 15
21 24 28 29 29 29 28 28 31 34 34 35 38 39 39 39 39 38 39 40 38 35 35 34 33 33 33 33 33 36 39 40 39 40 41 40 39 36 32 28 28 27 28 30 31 29 27 24 20 14 10 9 10 11 11 9 11 13 13 13 13 13 13 12 11 10 11 11 12 13 14 15 16 16
23 22 26 28 28 27 26 27 31 34 35 35 38 38 36 37 39 39 38 38 37 36 36 36 34 34 34 34 33 35 38 40 41 41 40 40 38 35 31 30 30 29 29 31 32 31 29 25 20 14 11 9 10 12 10 8 10 12 13 13 13 13 13 12 11 11 11 12 13 14 15 15 16 16
24 22 22 25 26 25 25 26 29 31 32 32 35 38 38 37 37 37 36 36 36 36 36 35 35 35 34 34 34 35 36 38 41 41 40 39 38 34 31 30 31 31 31 32 32 31 28 25 20 16 12 10 10 11 10 10 11 12 12 12 13 13 13 12 11 11 12 12 13 14 14 15 15 15
25 25 23 22 22 24 26 27 28 30 29 28 31 36 38 36 35 37 37 36 36 36 35 35 35 36 36 35 35 35 35 36 38 40 41 40 38 35 33 33 33 32 31 31 31 29 28 25 22 18 14 11 10 11 12 12 12 12 13 13 13 13 11 11 11 11 12 12 13 14 14 14 14 13
20 26 28 25 21 21 24 26 27 29 30 29 29 33 34 33 34 37 38 37 36 36 35 35 35 36 35 34 34 35 35 35 37 39 40 40 37 35 34 34 33 32 31 31 30 30 29 27 23 18 14 12 11 12 13 14 13 13 14 14 14 12 11 10 10 10 11 12 13 13 13 13 13 12
13 19 26 29 27 22 20 21 23 26 28 27 27 29 31 33 35 37 36 34 33 34 35 35 36 36 34 33 33 34 35 35 36 37 37 37 36 34 34 33 33 33 32 31 31 31 30 27 22 18 15 13 13 14 15 15 14 15 16 16 15 12 11 10 10 10 10 11 11 11 12 12 12 12
12 12 16 25 30 28 23 20 20 23 26 27 26 26 28 29 32 35 35 33 32 32 33 35 36 37 37 35 34 33 33 34 35 35 35 35 34 34 33 34 34 34 34 33 32 32 30 27 23 19 16 14 14 15 15 15 15 16 18 18 16 13 11 10 9 8 9 10 11 11 11 12 11 11
Wind_Direction
237 240 245 245 239 235 233 233 236 241 244 245 246 247 247 246 245 247 251 258 264 266 267 269 273 277 279 280 281 282 285 289 288 282 275 272 273 274 276 277 281 283 280 277 264 248 242 238 235 224 209 206 207 206 209 213 212 217 224 227 230 234 235 238 243 249 251 251 254 256 259 261 264 269
237 240 241 236 230 230 231 234 240 243 243 242 242 244 243 243 245 248 252 259 263 262 262 265 271 277 279 279 281 282 285 288 286 282 277 274 275 274 274 276 280 282 278 274 260 241 236 235 232 226 219 217 215 210 208 208 211 218 226 228 231 234 237 240 244 250 253 251 253 257 262 264 267 272
236 235 234 231 229 232 236 239 242 242 241 239 241 242 241 242 247 249 250 254 258 257 257 262 267 273 275 275 279 282 284 286 285 283 279 275 275 275 274 276 277 278 276 270 258 241 231 228 228 227 226 226 223 216 211 212 216 219 224 229 233 236 241 245 247 251 251 250 253 258 262 264 268 273
233 233 233 233 235 237 240 242 242 240 238 239 241 243 242 244 247 247 245 248 251 251 253 258 263 269 273 274 278 281 282 283 284 284 281 275 273 272 274 276 274 276 276 268 262 255 243 232 228 224 222 227 225 218 215 214 214 216 221 227 233 241 247 249 249 251 252 252 255 258 260 263 266 269
232 234 234 235 236 238 240 242 241 239 238 240 242 243 242 243 245 243 243 246 247 246 248 253 259 266 269 269 272 275 276 279 281 283 280 274 271 271 274 275 273 276 274 263 265 263 245 222 225 221 221 226 219 212 214 215 215 218 221 227 235 243 247 246 247 250 253 253 255 258 260 262 264 268
232 233 234 234 235 237 239 240 240 239 239 241 242 242 241 242 244 243 243 244 245 243 244 250 257 262 264 265 268 272 273 276 278 278 276 272 270 271 274 274 273 276 268 256 260 253 215 186 217 219 217 217 205 201 209 214 218 221 223 231 239 243 244 244 245 249 252 250 250 254 256 259 263 270
231 232 233 234 235 236 238 238 239 239 240 242 242 241 241 243 243 243 242 243 245 244 243 248 254 259 262 263 266 270 271 271 272 272 268 265 267 269 273 274 272 270 259 249 250 236 204 190 212 211 206 204 198 201 210 214 220 224 227 233 241 243 243 241 241 243 247 247 249 254 257 262 268 272
231 231 232 233 235 236 237 237 238 238 239 241 240 239 241 242 243 243 243 243 244 244 244 248 252 255 258 262 266 269 269 269 269 267 262 259 261 264 270 273 267 258 247 243 244 229 213 208 210 205 202 202 202 208 213 217 223 224 223 227 233 234 229 228 230 235 245 252 257 262 264 267 270 272
232 232 233 234 235 235 235 236 237 238 239 240 239 239 240 241 243 243 243 242 242 242 242 246 250 252 255 261 266 267 267 267 264 259 255 253 254 259 267 268 259 244 231 234 240 226 214 212 207 202 199 198 201 208 213 218 223 221 218 219 220 216 210 217 230 241 251 258 261 264 266 268 273 278
233 233 234 235 235 235 235 236 237 238 240 240 239 239 239 241 243 242 240 240 239 239 242 245 248 251 255 259 263 263 261 264 261 252 245 243 245 254 263 261 250 233 219 222 228 216 209 209 206 202 199 198 199 202 207 214 220 221 221 221 219 218 221 233 246 252 257 260 263 268 272 277 282 286
234 235 236 237 237 236 236 237 239 241 241 240 239 240 240 241 242 240 238 237 237 238 240 243 244 248 253 257 258 256 253 255 253 243 235 233 237 248 254 248 238 225 213 213 214 208 207 210 211 209 208 206 203 200 203 211 219 224 228 229 230 232 236 242 251 258 263 266 271 276 281 285 287 287
237 238 239 239 239 238 239 241 243 244 242 240 239 239 240 241 241 238 236 236 235 237 239 241 243 246 251 255 253 248 245 247 245 235 227 227 233 244 245 229 219 217 212 210 212 211 210 212 216 219 217 214 209 206 207 213 222 230 233 234 235 237 240 245 252 262 270 275 280 283 285 287 287 285
238 239 240 241 241 241 242 243 244 245 243 241 240 240 240 241 239 236 235 235 234 235 237 238 240 245 249 250 246 242 241 242 237 225 220 223 229 241 237 214 203 207 208 210 214 218 218 218 220 222 220 217 213 213 217 221 225 230 231 232 234 239 245 252 260 270 278 282 284 285 285 284 284 284
239 239 240 242 244 243 243 243 243 243 243 242 242 242 244 245 240 234 234 234 233 235 237 237 240 245 248 246 242 239 236 234 228 219 218 222 228 236 230 205 195 198 202 205 209 215 220 221 221 222 220 217 215 217 223 227 226 227 230 234 241 248 255 263 272 280 282 283 282 282 282 282 284 285
241 241 241 242 243 242 241 241 241 242 242 241 240 241 245 247 244 239 236 234 234 236 237 239 242 246 248 244 236 231 227 225 221 216 217 222 229 235 225 202 196 198 200 200 200 206 215 216 216 217 216 215 218 221 227 231 231 233 239 245 253 260 267 274 279 280 279 279 280 280 281 283 284 283
244 243 243 242 241 241 240 240 240 240 239 239 238 239 242 244 243 242 240 238 238 240 240 241 243 246 245 237 228 225 223 221 217 214 217 222 229 236 226 206 199 199 199 198 197 201 210 212 211 212 214 217 220 224 230 235 239 243 248 255 262 269 273 275 275 275 276 277 278 280 282 283 282 284
246 245 244 242 240 240 239 238 238 237 236 235 235 236 239 240 240 239 239 239 242 242 241 242 244 245 242 232 226 223 219 216 214 214 217 221 226 230 223 209 201 197 198 198 198 201 206 210 213 215 217 221 225 231 237 241 244 248 251 256 262 265 268 270 272 274 274 276 279 282 283 284 286 289
250 248 245 243 241 239 237 236 235 234 234 233 231 232 235 236 236 236 235 236 237 237 237 240 242 241 235 227 222 218 214 213 214 215 220 223 223 222 216 209 202 197 199 203 206 209 212 215 219 222 223 228 234 240 243 243 244 247 249 254 258 262 266 269 270 272 274 279 283 284 284 286 289 291
252 251 249 245 242 240 238 236 235 234 234 231 230 231 233 233 233 233 232 232 233 234 235 238 239 236 226 217 214 212 210 210 208 208 214 217 215 211 208 209 207 203 204 208 212 218 222 224 227 229 229 232 236 238 237 234 237 242 246 252 257 261 265 267 270 275 279 282 283 283 285 288 289 289
252 252 251 248 244 242 240 239 237 236 233 231 230 231 232 232 232 230 230 231 232 232 235 236 236 231 221 212 211 210 210 209 205 203 206 208 208 205 202 204 207 207 208 210 214 220 224 227 229 227 225 226 227 227 225 225 230 236 242 251 257 262 268 272 275 278 279 281 283 284 286 286 286 287
250 251 251 249 246 243 241 240 239 237 234 231 230 231 230 231 230 229 228 228 229 230 232 233 232 228 220 212 210 212 212 211 208 207 209 209 209 208 205 205 206 206 206 209 213 217 221 223 222 218 215 215 217 218 218 221 227 234 243 255 264 271 276 277 276 276 278 282 284 284 284 283 283 286
247 249 250 249 246 243 242 241 240 237 235 232 231 230 230 229 229 228 226 225 225 226 227 228 227 226 220 214 213 215 216 214 212 212 214 215 214 213 213 212 208 205 207 209 210 212 215 215 212 209 208 207 210 213 217 223 232 240 247 259 269 274 275 273 273 277 282 286 286 284 282 281 281 282
242 246 247 247 246 244 243 242 241 238 236 234 233 231 230 229 229 227 225 224 223 222 222 222 223 222 218 213 214 217 218 217 215 213 214 217 219 219 218 215 210 207 209 210 209 209 211 209 204 202 203 205 210 217 223 229 238 247 255 262 266 266 267 268 274 281 287 289 287 284 281 279 278 278
237 241 244 245 244 243 242 242 242 240 238 236 235 233 231 231 230 228 226 225 224 223 221 221 222 220 217 213 213 216 218 217 215 213 212 215 218 221 221 218 215 212 211 211 209 207 206 204 202 203 206 210 217 223 229 236 244 252 257 260 261 263 266 272 279 286 289 288 285 282 278 275 276 277
234 236 240 243 242 241 240 241 241 241 240 238 237 235 235 235 233 231 230 228 225 223 221 221 222 219 215 212 212 215 217 217 216 215 213 213 216 219 220 219 215 210 206 205 205 204 203 203 204 207 210 215 223 230 232 236 243 248 252 256 262 268 273 279 285 288 288 285 282 280 276 269 266 260
233 233 236 240 241 238 238 238 239 239 239 238 237 237 237 237 235 233 233 231 227 222 220 220 221 218 213 212 212 213 213 215 217 217 213 212 215 217 217 216 212 207 204 203 199 196 201 206 209 214 218 222 227 230 229 233 241 248 253 258 266 274 279 284 287 287 286 282 277 274 271 265 261 247
235 233 233 238 240 238 237 236 236 236 236 236 237 237 236 235 234 233 233 232 228 223 219 219 219 216 214 214 213 211 210 211 214 215 214 215 219 217 212 210 207 202 201 205 202 196 198 208 213 217 221 223 224 226 228 237 248 255 261 266 273 279 285 289 289 286 281 276 273 271 265 260 260 250
237 233 231 235 239 238 236 236 236 236 235 234 234 235 234 233 233 232 232 231 228 223 219 218 218 216 215 216 214 210 208 209 212 213 212 216 219 215 209 207 205 202 201 207 210 205 204 212 216 214 211 210 215 227 239 251 259 264 268 274 280 284 288 290 289 285 277 269 267 268 262 255 253 250
236 235 231 232 237 237 236 236 236 237 236 234 233 233 232 231 231 231 231 229 225 222 220 219 218 217 216 216 215 208 205 209 211 211 211 214 215 211 206 204 205 206 208 213 217 215 212 214 213 209 205 207 217 235 254 265 269 270 273 278 281 285 287 287 285 280 270 260 254 254 256 255 252 250
229 235 233 230 231 234 234 235 233 233 234 233 232 231 230 230 230 231 230 227 223 221 221 220 219 218 216 213 209 204 205 209 210 211 214 213 209 207 205 204 205 209 212 216 219 218 213 209 205 201 203 211 224 245 263 273 274 273 274 275 278 282 283 282 279 271 261 250 241 240 244 248 251 251
223 231 233 231 230 231 234 235 233 231 232 230 229 228 228 229 231 231 229 227 223 222 222 220 220 218 214 211 206 203 205 209 210 213 218 215 207 204 205 205 207 210 214 216 216 213 207 203 200 199 205 217 232 250 267 276 275 271 269 269 272 273 270 270 274 269 252 237 229 230 233 237 249 266
220 224 226 228 231 231 232 233 228 226 227 227 226 226 227 229 229 227 227 226 224 223 222 221 220 217 213 209 206 204 206 209 209 213 218 214 207 205 206 207 208 211 214 215 211 205 201 199 198 200 210 225 243 258 270 278 277 270 264 261 264 266 260 260 271 271 244 220 217 222 223 228 250 276
215 218 219 222 228 228 225 223 220 218 219 221 224 227 228 226 222 220 220 221 219 219 221 222 220 217 212 209 206 205 207 208 208 212 215 211 206 207 209 209 212 215 216 214 208 201 198 196 197 202 214 235 256 266 274 280 276 268 262 257 259 263 258 254 261 257 210 199 208 221 232 244 259 271
213 216 220 223 227 226 221 218 214 213 215 219 223 224 221 217 214 213 213 213 213 215 218 219 219 217 214 210 207 206 207 207 206 209 212 210 206 206 206 208 212 216 217 214 207 201 197 196 197 202 216 242 263 273 281 282 268 260 260 256 253 252 246 241 238 214 203 224 239 243 247 253 262 271
219 217 221 225 226 225 223 220 217 217 219 219 216 211 208 208 210 209 207 207 209 211 213 214 215 217 216 213 210 208 207 206 205 206 207 208 206 205 206 208 211 213 214 212 206 201 198 198 199 204 218 244 262 273 280 277 260 252 255 255 249 239 228 221 214 213 229 246 256 262 266 267 270 277
231 222 222 225 227 226 225 223 221 221 220 212 205 203 204 205 207 207 206 206 209 213 216 216 215 215 216 215 214 210 207 206 206 205 205 207 207 206 207 209 212 214 213 209 205 201 198 199 203 210 224 243 260 269 272 264 251 247 249 250 245 227 211 208 212 222 236 248 258 268 276 280 282 284
239 229 225 227 230 231 231 228 220 215 210 204 201 203 206 207 208 208 207 207 211 215 219 219 217 216 216 216 214 210 206 206 208 208 206 207 208 206 206 207 211 214 211 206 203 201 200 201 205 212 223 242 260 271 273 261 244 240 241 243 239 223 209 208 215 224 233 244 256 266 275 282 285 286
235 235 230 229 231 234 236 231 217 208 206 204 203 207 210 209 209 209 209 211 213 214 215 218 217 217 216 214 211 208 206 207 209 209 208 208 208 206 205 207 209 211 209 204 201 201 202 205 207 212 227 253 271 282 282 263 241 236 238 238 235 226 217 213 216 224 237 252 263 272 278 283 285 287
225 234 233 229 229 232 234 226 213 208 208 207 207 212 216 211 206 209 213 215 213 211 211 214 215 215 215 214 211 209 207 208 209 209 209 210 208 204 205 209 211 210 207 204 201 201 204 207 211 218 234 258 279 293 291 263 236 233 235 234 230 224 220 217 215 223 239 255 266 272 278 283 286 290
218 228 234 234 233 233 230 222 213 210 211 211 211 215 216 210 207 211 214 213 211 212 213 214 214 214 214 214 213 213 211 210 209 210 211 210 207 205 207 213 215 212 208 204 203 204 207 210 215 219 227 248 276 293 292 262 232 226 228 228 223 218 216 218 221 229 241 254 262 269 276 283 288 291
221 222 229 233 235 232 226 221 219 217 218 220 218 214 211 210 213 218 218 214 213 215 217 216 214 212 212 213 215 217 217 212 210 211 212 210 206 206 211 217 217 214 210 206 205 208 211 214 213 213 219 242 271 288 289 268 241 228 225 223 215 210 210 216 224 234 244 253 261 269 277 283 286 289
228 224 224 226 230 230 227 227 228 226 226 227 220 212 209 211 217 222 224 221 218 217 218 217 214 213 215 216 216 218 220 217 214 214 212 208 205 207 213 217 217 215 212 209 208 210 213 212 209 211 222 244 268 282 286 277 254 234 226 217 208 206 210 216 223 236 247 255 263 270 276 281 285 289
238 228 224 222 223 227 230 232 232 230 231 231 225 217 214 214 217 221 223 222 219 218 218 217 215 216 219 218 215 218 222 220 216 213 209 206 208 211 214 216 217 216 214 211 210 212 212 209 208 214 227 243 259 270 277 275 257 235 222 214 206 206 213 219 227 240 251 259 267 272 277 283 289 292
269 240 228 223 220 222 227 230 230 230 231 232 229 225 222 219 219 222 224 223 220 218 217 216 216 217 218 216 215 218 219 214 209 208 209 212 215 217 217 219 218 216 214 212 212 212 211 208 209 216 228 242 254 260 267 269 256 233 219 212 208 209 214 222 234 247 257 263 268 273 278 284 288 290
296 274 242 226 222 224 228 230 230 231 233 234 234 231 228 225 223 223 225 226 226 223 218 217 216 217 217 217 217 217 216 211 208 209 213 217 218 219 221 222 219 216 214 214 213 211 209 207 210 216 224 233 243 251 259 262 251 233 218 210 207 210 217 223 235 249 258 266 272 276 280 285 287 288